Denver, CO

6:34 AM MDT on May 27, 2017 (GMT -0600)
Denver International

Weather History for KDEN - February, 2013

Change the Weather History Date:

Friday, February 15, 2013

  Actual Average Record
Temperature  
Mean Temperature 27 °F 32 °F  
Max Temperature 38 °F 46 °F 67 °F (2017)
Min Temperature 16 °F 19 °F -20 °F (1881)
Degree Days  
Heating Degree Days 38 33  
Month to date heating degree days 473 505  
Since 1 July heating degree days 3773 4036  
Cooling Degree Days 0 0  
Month to date cooling degree days 0 0  
Year to date cooling degree days 0 0  
Moisture  
Dew Point 12 °F    
Average Humidity 52    
Maximum Humidity 74    
Minimum Humidity 29    
Precipitation  
Precipitation T in 0.02 in 0.49 in (1889)
Month to date precipitation 0.02 0.19  
Year to date precipitation 0.33 0.60  
Snow  
Snow T in - - ()
Month to date snowfall T  
Since 1 July snowfall 17  
Snow Depth T in    
Sea Level Pressure  
Sea Level Pressure 30.33 in    
Wind  
Wind Speed 12 mph (South)    
Max Wind Speed 35 mph    
Max Gust Speed 44 mph    
Visibility 10 miles    
Events Snow    
T = Trace of Precipitation, MM = Missing Value Source: NWS Daily Summary

Daily Weather History Graph

Daily Weather History Graph

Search for Another Location

Airport or City:

Trip Planner

Search our weather history database for the weather conditions in past years. The results will help you decide how hot, cold, wet, or windy it might be!

Date:

Astronomy

Feb. 15, 2013 Rise Set
Actual Time 6:50 AM MST 5:35 PM MST
Civil Twilight 6:23 AM MST 6:02 PM MST
Nautical Twilight 5:51 AM MST 6:34 PM MST
Astronomical Twilight 5:20 AM MST 7:05 PM MST
Moon 9:29 AM MST (2/15) 11:37 PM MST (2/15)
Length of Visible Light 11h 39m
Length of Day
10h 44m
Waxing Crescent, 31% of the Moon is Illuminated
Feb 15
Waxing Crescent
Feb 17
First Quarter
Feb 25
Full
Mar 4
Last Quarter
Mar 11
New

Hourly Weather History & Observations

Time (MST) Temp. Windchill Dew Point Humidity Pressure Visibility Wind Dir Wind Speed Gust Speed Precip Events Conditions
12:53 AM 19.0 °F 10.0 °F 10.0 °F 68% 30.36 in 10.0 mi SE 6.9 mph - N/A   Mostly Cloudy
1:53 AM 19.9 °F 13.4 °F 12.0 °F 71% 30.34 in 10.0 mi ESE 4.6 mph - N/A   Overcast
2:53 AM 21.0 °F 12.4 °F 14.0 °F 74% 30.32 in 10.0 mi SSE 6.9 mph - 0.00 in Snow Light Snow
3:53 AM 17.1 °F 7.6 °F 10.9 °F 77% 30.34 in 10.0 mi SSE 6.9 mph - 0.00 in   Mostly Cloudy
4:53 AM 18.0 °F 6.9 °F 10.0 °F 71% 30.32 in 10.0 mi South 9.2 mph - N/A   Overcast
5:53 AM 18.0 °F 8.7 °F 9.0 °F 68% 30.34 in 10.0 mi SW 6.9 mph - N/A   Overcast
6:53 AM 19.0 °F 9.0 °F 10.0 °F 68% 30.37 in 10.0 mi WSW 8.1 mph - N/A   Overcast
7:53 AM 21.0 °F 11.4 °F 12.0 °F 68% 30.38 in 10.0 mi SW 8.1 mph - N/A   Mostly Cloudy
8:53 AM 25.0 °F 16.3 °F 12.9 °F 60% 30.38 in 10.0 mi West 8.1 mph - N/A   Mostly Cloudy
9:53 AM 28.0 °F 20.0 °F 15.1 °F 58% 30.36 in 10.0 mi West 8.1 mph - N/A   Scattered Clouds
10:53 AM 33.1 °F 25.5 °F 15.1 °F 48% 30.32 in 10.0 mi West 9.2 mph - N/A   Scattered Clouds
11:53 AM 36.0 °F 27.1 °F 12.0 °F 37% 30.30 in 10.0 mi NW 13.8 mph - N/A   Mostly Cloudy
12:53 PM 36.0 °F 23.9 °F 9.0 °F 33% 30.30 in 10.0 mi North 25.3 mph 31.1 mph N/A   Overcast
1:53 PM 36.0 °F 23.5 °F 9.0 °F 33% 30.28 in 9.0 mi North 27.6 mph 36.8 mph N/A   Mostly Cloudy
2:53 PM 37.0 °F 24.7 °F 9.0 °F 31% 30.28 in 10.0 mi North 28.8 mph 42.6 mph N/A   Mostly Cloudy
3:53 PM 32.0 °F 19.5 °F 12.9 °F 45% 30.32 in 10.0 mi NE 21.9 mph 26.5 mph N/A   Mostly Cloudy
4:53 PM 30.9 °F 20.7 °F 14.0 °F 50% 30.34 in 10.0 mi ENE 13.8 mph - N/A   Mostly Cloudy
5:53 PM 24.1 °F 15.2 °F 12.0 °F 60% 30.39 in 10.0 mi East 8.1 mph - N/A   Mostly Cloudy
6:53 PM 19.9 °F 8.6 °F 10.9 °F 68% 30.41 in 10.0 mi SE 10.4 mph - N/A   Mostly Cloudy
7:53 PM 21.0 °F 9.3 °F 12.0 °F 68% 30.39 in 10.0 mi South 11.5 mph - N/A   Mostly Cloudy
8:53 PM 21.9 °F 10.4 °F 12.9 °F 68% 30.35 in 10.0 mi South 11.5 mph - N/A   Mostly Cloudy
9:53 PM 19.9 °F 7.9 °F 12.0 °F 71% 30.32 in 10.0 mi South 11.5 mph - N/A   Scattered Clouds
10:53 PM 18.0 °F 6.9 °F 10.9 °F 74% 30.29 in 10.0 mi SSE 9.2 mph - N/A   Partly Cloudy
11:53 PM 19.9 °F 12.1 °F 10.0 °F 65% 30.25 in 10.0 mi SSW 5.8 mph - N/A   Clear